Total_Precipitation_Accumulation
1.24 1.16 1.07 1.03 0.90 0.83 0.78 0.83 0.83 0.76 0.71 0.65 0.55 0.46 0.43 0.43 0.40 0.41 0.40 0.41 0.47 0.61 0.82 0.95 0.95 0.91 0.89 0.96 0.95 0.88 0.82 0.74 0.66 0.60 0.57 0.58 0.55 0.54 0.57 0.60 0.63 0.66 0.68
1.40 1.33 1.16 1.07 1.01 0.91 0.85 0.90 0.93 0.85 0.81 0.74 0.66 0.56 0.50 0.49 0.42 0.40 0.41 0.43 0.44 0.52 0.72 0.94 1.10 1.17 1.17 1.23 1.18 1.09 0.97 0.86 0.78 0.75 0.71 0.70 0.64 0.61 0.63 0.60 0.62 0.63 0.65
1.50 1.49 1.37 1.17 1.05 1.05 1.02 1.02 1.06 1.05 0.95 0.82 0.75 0.68 0.61 0.54 0.48 0.44 0.44 0.44 0.43 0.42 0.55 0.78 1.02 1.15 1.24 1.31 1.36 1.30 1.14 0.99 0.88 0.81 0.80 0.82 0.77 0.73 0.70 0.70 0.71 0.71 0.72
1.57 1.63 1.53 1.41 1.29 1.27 1.25 1.18 1.11 1.02 0.94 0.82 0.75 0.72 0.68 0.63 0.57 0.57 0.56 0.49 0.44 0.39 0.44 0.57 0.73 0.93 1.12 1.23 1.33 1.46 1.30 1.15 1.01 0.90 0.88 0.92 0.95 0.88 0.84 0.86 0.84 0.82 0.83
1.78 1.79 1.72 1.61 1.56 1.51 1.47 1.38 1.25 1.11 0.98 0.88 0.81 0.81 0.80 0.75 0.70 0.66 0.61 0.53 0.50 0.48 0.47 0.48 0.52 0.63 0.79 1.02 1.19 1.39 1.47 1.39 1.20 1.07 0.98 0.94 0.95 0.96 0.99 1.02 1.03 1.01 1.03
2.12 2.00 1.96 1.87 1.80 1.69 1.61 1.57 1.45 1.30 1.13 1.06 1.01 0.93 0.86 0.80 0.78 0.74 0.68 0.62 0.58 0.57 0.60 0.61 0.60 0.58 0.63 0.79 1.08 1.29 1.45 1.54 1.41 1.21 1.09 1.03 1.03 1.06 1.12 1.19 1.24 1.28 1.30
2.39 2.25 2.10 2.11 2.03 1.86 1.68 1.66 1.66 1.54 1.39 1.35 1.30 1.09 0.93 0.83 0.79 0.74 0.76 0.77 0.69 0.63 0.65 0.73 0.78 0.73 0.61 0.61 0.77 0.98 1.18 1.37 1.51 1.48 1.32 1.20 1.18 1.23 1.33 1.44 1.51 1.52 1.51
2.63 2.42 2.26 2.19 2.17 2.10 1.89 1.75 1.79 1.77 1.64 1.59 1.59 1.54 1.34 1.13 0.89 0.77 0.77 0.78 0.76 0.75 0.70 0.69 0.72 0.76 0.73 0.63 0.59 0.69 0.82 1.04 1.35 1.62 1.72 1.62 1.52 1.52 1.60 1.72 1.80 1.85 1.84
2.90 2.70 2.47 2.41 2.36 2.34 2.23 2.06 1.96 1.93 1.89 1.78 1.77 1.94 1.74 1.40 1.06 0.88 0.85 0.83 0.81 0.84 0.84 0.79 0.75 0.75 0.77 0.71 0.66 0.65 0.70 0.83 1.14 1.50 1.84 1.96 1.93 1.95 2.09 2.21 2.25 2.31 2.27
2.94 2.93 2.76 2.55 2.48 2.45 2.38 2.43 2.43 2.29 2.19 1.99 1.84 1.72 1.67 1.51 1.43 1.20 0.98 0.95 0.91 0.87 0.91 0.90 0.85 0.83 0.80 0.80 0.79 0.78 0.81 0.88 1.09 1.50 1.87 2.13 2.26 2.46 2.72 2.84 2.83 2.83 2.68
2.78 2.88 2.85 2.69 2.44 2.32 2.26 2.32 2.41 2.46 2.33 2.13 1.96 1.83 1.73 1.53 1.43 1.46 1.27 1.08 1.05 0.93 0.89 0.95 0.98 0.99 1.00 1.00 0.97 1.01 1.05 1.08 1.28 1.63 2.03 2.40 2.69 2.94 3.19 3.36 3.35 3.28 3.15
2.63 2.63 2.63 2.55 2.45 2.31 2.20 2.23 2.35 2.43 2.46 2.39 2.18 1.97 1.86 1.73 1.50 1.50 1.45 1.30 1.28 1.16 1.02 1.01 1.07 1.13 1.14 1.18 1.19 1.27 1.25 1.32 1.46 1.70 2.09 2.46 2.75 2.96 3.17 3.48 3.64 3.58 3.53
2.53 2.50 2.57 2.49 2.40 2.28 2.23 2.20 2.23 2.23 2.27 2.33 2.27 2.10 1.90 1.74 1.62 1.66 1.70 1.58 1.48 1.35 1.31 1.21 1.12 1.12 1.15 1.20 1.29 1.44 1.33 1.35 1.39 1.55 1.90 2.25 2.36 2.46 2.61 2.86 3.19 3.37 3.42
2.44 2.40 2.48 2.45 2.38 2.32 2.26 2.21 2.17 2.10 2.10 2.12 2.08 2.01 1.89 1.72 1.62 1.66 1.78 1.93 1.91 1.64 1.44 1.36 1.24 1.18 1.18 1.20 1.31 1.47 1.32 1.47 1.43 1.50 1.67 1.84 1.79 1.73 1.85 2.07 2.30 2.60 2.82
2.36 2.27 2.30 2.32 2.28 2.23 2.21 2.19 2.14 2.02 1.94 1.94 1.88 1.82 1.77 1.65 1.57 1.56 1.64 1.84 2.15 2.11 1.72 1.38 1.32 1.27 1.25 1.24 1.37 1.31 1.20 1.46 1.49 1.45 1.46 1.46 1.40 1.37 1.47 1.62 1.80 2.06 2.28
2.28 2.17 2.11 2.13 2.15 2.12 2.09 2.14 2.06 1.95 1.91 1.82 1.77 1.73 1.67 1.60 1.58 1.60 1.66 1.72 1.87 2.04 1.87 1.41 1.23 1.20 1.25 1.26 1.40 1.26 1.23 1.47 1.44 1.40 1.36 1.30 1.28 1.30 1.38 1.51 1.58 1.73 1.98
2.11 2.16 2.08 2.07 2.10 2.10 2.05 2.06 2.05 1.98 1.89 1.78 1.71 1.67 1.63 1.58 1.59 1.56 1.60 1.68 1.73 1.81 1.80 1.41 1.18 1.17 1.28 1.30 1.33 1.26 1.22 1.19 1.14 1.26 1.23 1.21 1.17 1.20 1.29 1.40 1.50 1.58 1.72
1.85 1.90 1.93 1.96 1.97 1.96 1.94 1.91 1.92 1.90 1.86 1.76 1.70 1.69 1.65 1.64 1.73 1.74 1.73 1.71 1.69 1.66 1.66 1.51 1.26 1.18 1.18 1.14 1.12 1.14 1.15 1.15 1.06 1.21 1.19 1.15 1.18 1.21 1.26 1.28 1.34 1.44 1.53
1.72 1.76 1.76 1.85 1.88 1.84 1.86 1.85 1.81 1.81 1.82 1.78 1.73 1.72 1.69 1.71 1.78 1.78 1.75 1.72 1.64 1.59 1.57 1.54 1.38 1.24 1.24 1.19 1.17 1.15 1.13 1.12 1.04 1.12 1.17 1.15 1.18 1.21 1.22 1.27 1.29 1.30 1.33
1.51 1.54 1.58 1.60 1.67 1.71 1.75 1.82 1.87 1.83 1.82 1.80 1.77 1.72 1.66 1.64 1.62 1.61 1.59 1.55 1.55 1.56 1.57 1.58 1.49 1.36 1.30 1.29 1.31 1.35 1.32 1.20 1.12 1.01 1.08 1.06 1.08 1.12 1.13 1.15 1.18 1.18 1.19
1.38 1.43 1.48 1.49 1.50 1.54 1.63 1.72 1.83 1.89 1.88 1.86 1.83 1.76 1.64 1.58 1.50 1.47 1.44 1.40 1.42 1.53 1.61 1.64 1.56 1.44 1.32 1.32 1.36 1.30 1.32 1.28 1.22 1.08 1.04 0.99 0.95 0.92 0.94 1.01 1.09 1.18 1.25
1.36 1.40 1.49 1.54 1.55 1.58 1.80 1.88 1.85 1.86 1.88 1.83 1.74 1.60 1.52 1.51 1.45 1.48 1.48 1.45 1.49 1.62 1.73 1.69 1.55 1.37 1.17 1.10 1.19 1.33 1.45 1.51 1.44 1.11 1.05 1.09 1.02 1.00 0.93 0.92 1.10 1.21 1.30
1.45 1.54 1.58 1.66 1.67 1.68 1.76 1.66 1.70 1.68 1.71 1.72 1.64 1.51 1.42 1.30 1.29 1.19 1.30 1.40 1.43 1.51 1.54 1.47 1.39 1.20 1.10 1.08 1.29 1.55 1.56 1.47 1.24 1.02 1.08 1.21 1.10 1.07 0.99 1.04 1.20 1.18 1.28
1.45 1.59 1.63 1.67 1.67 1.66 1.66 1.53 1.52 1.39 1.39 1.43 1.45 1.43 1.37 1.31 1.24 1.21 1.24 1.32 1.22 1.17 1.17 1.09 1.08 1.10 1.11 1.13 1.32 1.59 1.62 1.59 1.36 1.16 1.15 1.31 1.16 1.10 1.02 1.04 1.18 1.12 1.15
1.34 1.41 1.47 1.50 1.45 1.44 1.45 1.37 1.36 1.26 1.25 1.21 1.20 1.25 1.31 1.25 1.33 1.43 1.37 1.32 1.16 1.03 1.06 1.13 1.18 1.19 1.26 1.26 1.33 1.66 1.85 1.91 1.70 1.35 1.16 1.16 1.06 1.05 1.10 1.11 1.16 1.23 1.19
1.16 1.14 1.15 1.14 1.13 1.12 1.20 1.17 1.17 1.08 1.11 1.10 1.10 1.15 1.29 1.26 1.36 1.45 1.31 1.26 1.18 1.04 1.00 1.00 0.99 0.98 0.97 1.03 1.21 1.39 1.81 2.15 1.86 1.51 1.11 1.17 1.17 1.23 1.52 1.23 1.14 1.17 1.20